Regional Weather Roundup
Issued by NWS Grand Forks, ND

Home | Current Version | Previous Version | Text Only | Print | Product List | Glossary On
Versions: 1 2 3 4 5 6 7 8 9 10 11 12 13 14 15 16 17 18 19 20 21 22 23 24 25 26 27 28 29 30 31 32 33 34 35 36 37 38 39 40 41 42 43 44 45 46 47 48 49 50
000
ASUS43 KFGF 181431
RWRFGF
PRAIRIE TO PINES  WEATHER ROUNDUP
NATIONAL WEATHER SERVICE EASTERN NORTH DAKOTA/GRAND FORKS ND
900 AM CDT THU SEP 18 2014

 **SATELLITE DATA USED TO AUGMENT SKY COVER AT AUTOMATED STATIONS**
 *****  WEATHER ACROSS EASTERN NORTH DAKOTA  *****

CITY           SKY/WX    TMP DP  RH WIND       PRES   REMARKS
GRAND FORKS    FOG       46  45  96 SE14      29.99S VSB 1/4
GRAND FRKS AFB FOG       45  45 100 SE8       29.98F VSB 1/2
GRAND FRKS NWS   N/A     48 N/A N/A SE13        N/A
DEVILS LAKE    SUNNY     54  45  71 SE10      29.92S
FARGO          CLOUDY    52  50  93 SE12      30.00S
WAHPETON ARPT  CLOUDY    50  46  87 SE14G20   30.02R
$$

 ***** WEATHER ACROSS CENTRAL AND WESTERN NORTH DAKOTA  *****

CITY           SKY/WX    TMP DP  RH WIND       PRES   REMARKS
BISMARCK       SUNNY     53  49  86 NE6       29.89F
MINOT          SUNNY     50  47  89 E5        29.83F
JAMESTOWN      SUNNY     49  47  93 S7        29.95S
MINOT AFB      SUNNY     49  49  99 SE10      29.82F
GARRISON         N/A     56  51  84 SE8       29.85F
WILLISTON      SUNNY     58  48  69 S7        29.75F
DICKINSON      SUNNY     55  48  77 S17       29.81S
HETTINGER      MOSUNNY   54  48  80 SE9       29.86F
$$

 *****  OTHER AIRPORT OBSERVATIONS IN OUR AREA  *****

CITY           SKY/WX    TMP DP  RH WIND       PRES   REMARKS
WALHALLA         N/A     45  45 100 SE8       29.96F
GRAFTON AIRPOR FOG       43  43 100 SE7       29.98S VSB 1/4
VALLEY CITY AR CLOUDY    48  48 100 SE15      29.96F FOG
CANDO          FAIR      52  48  87 SE9       29.92F
CAVALIER APRT  FAIR      45  41  87 S8        29.97F
GWINNER        CLOUDY    54  54 100 SE10      29.98F VSB 1/2
ROLLA          FAIR      48  48 100 S9G16     29.91F
 ***** THE ABOVE OBSERVATIONS ARE NON NWS ARE NOT QUALITY
       CONTROLLED AND MAY MIS-REPORT RAIN FOR SNOW...
$$

  *****  WEATHER ACROSS NORTHERN MINNESOTA  *****

CITY           SKY/WX    TMP DP  RH WIND       PRES   REMARKS
FLAG ISLAND    CLOUDY    45  45 100 SE15      30.04S FOG
WARROAD        FOG       46  43  87 SE8       30.04F VSB 1
ROSEAU         CLOUDY    48  43  81 SE9       30.03S HAZE
HALLOCK        CLOUDY    46  45  93 SE9       29.99S FOG
THF RVR FALLS  CLOUDY    48  48 100 SE12      30.01F VSB 1/2
BAUDETTE       CLOUDY    44  43  96 SE8       30.07S FOG
WASKISH        CLOUDY    45  45 100 CALM      30.07S
CROOKSTON      CLOUDY    50  48  93 SE9       30.01S FOG
STEPHEN NDAWN    N/A     46  46 100 SE12        N/A
GREENBUSH NDAW   N/A     46  46 100 SE8         N/A
$$
  *****  WEATHER ACROSS CENTRAL AND WEST MINNESOTA  *****

CITY           SKY/WX    TMP DP  RH WIND       PRES   REMARKS
FOSSTON        CLOUDY    46  46 100 SE6       30.03F
BEMIDJI        CLOUDY    46  42  86 S8        30.07S
PARK RAPIDS    CLOUDY    46  42  86 SE10      30.07S
ELBOW LAKE     CLOUDY    49  49  99 E10       30.03S FOG
WADENA         CLOUDY    45  45 100 E8        30.06S
DETROIT LAKES  FOG       46  46 100 SE14      30.05S VSB 3/4
MOORHEAD       CLOUDY    54  54 100 S8        30.01S
FERGUS FALLS   CLOUDY    50  48  93 SE10      30.04S
MORRIS MN      FOG       50  48  93 SE12      30.03S VSB 1
STAPLES        CLOUDY    45  43  93 E3        30.08S
$$
  *****  WEATHER ELSEWHERE ACROSS MINNESOTA  *****

CITY           SKY/WX    TMP DP  RH WIND       PRES   REMARKS
DULUTH         PTSUNNY   45  37  73 SE16      30.14R
INTRNTL FALLS  CLOUDY    42  41  96 S6        30.11R
ELY            PTSUNNY   43  36  75 SE8       30.14S
CLOQUET        CLOUDY    45  37  76 E10G17    30.13S
WHEATON        FOG       48  48 100 SE8       30.04S VSB 1/2
BRAINERD       CLOUDY    45  42  89 VRB7      30.10S
HIBBING        MOSUNNY   45  37  73 SE12      30.12S
ALEXANDRIA     FOG       48  47  96 E9        30.07S VSB 1/4
SAINT CLOUD    CLOUDY    49  46  90 VRB6      30.09S FOG
MINNEAPOLIS    PTSUNNY   52  48  86 E8        30.10R
$$

  *****  WEATHER ACROSS SOUTH DAKOTA  *****

CITY           SKY/WX    TMP DP  RH WIND       PRES   REMARKS
SIOUX FALLS    MOSUNNY   62  57  83 S12       30.01S
BROOKINGS      NOT AVBL
WATERTOWN      SUNNY     58  53  84 SE9       29.99S
HURON          PTSUNNY   56  54  93 SE6       29.96R
SISSETON         N/A     51  51 100 S14       30.00S
ABERDEEN       SUNNY     52  49  89 MISG      29.96S
MITCHELL       PTSUNNY   59  58  96 S9        29.98R
PIERRE         PTSUNNY   61  56  83 SE10      29.88F
MOBRIDGE       SUNNY     58  53  84 SE9       29.86F
RAPID CITY     SUNNY     55  52  89 SE3       29.86F
$$

  *****  SOME WEATHER IN NEARBY STATES *****

CITY           SKY/WX    TMP DP  RH WIND       PRES   REMARKS
GLASGOW MT     MOSUNNY   55  49  80 E12       29.66F
GREAT FALLS MT MOCLDY    66  43  43 S13       29.71S
CHEYENNE WY    SUNNY     58  39  49 W10       30.10R
SCOTTSBLUFF NE FOG       54  54 100 CALM      29.98R VSB<1/4
OMAHA NE       CLOUDY    63  59  87 SE10      30.04R FOG
DES MOINES IA  FOG       58  57  97 CALM      30.09S VSB 1/8
DAVENPORT IA   SUNNY     58  53  84 SE5       30.13R
CHICAGO IL     MOSUNNY   58  53  84 N3        30.15R
EAU CLAIRE WI  CLOUDY    48  47  96 E8        30.14R FOG
LA CROSSE WI   CLOUDY    52  50  93 E5        30.14R
$$

  *****  SOME NATIONAL WEATHER *****

CITY           SKY/WX    TMP DP  RH WIND       PRES   REMARKS
LA GUARDIA NY  MOSUNNY   65  49  56 CALM      30.00S
RALEIGH NC     PTSUNNY   70  60  70 CALM      30.02R
ATLANTA GA     MOSUNNY   70  64  83 E9        30.01R
NEW ORLEANS LA PTSUNNY   82  75  79 NE7       29.94S
OKLAHOMA CITY  CLOUDY    70  61  73 E26G38    30.01R
ALBUQUERQUE NM MOSUNNY   59  49  69 N8        30.10R
SALT LAKE CITY PTCLDY    69  46  43 SE13      29.92R
LOS ANGELES CA PTCLDY    68  61  78 CALM      29.84R
BOISE ID       CLOUDY    70  41  34 SE6       29.79R
SEATTLE WA     CLOUDY    59  57  93 S5        29.77R
$$

*** WEATHER ACROSS MANITOBA...SASKATCHEWAN AND ONTARIO ***
                ***ONTARIO***

CITY           SKY/WX    TMP DP  RH WIND       PRES   REMARKS
GERALDTON      MOSUNNY   37  36  93 CALM      30.21R
THUNDER BAY    PTSUNNY   37  34  87 VRB2      30.23
SIOUX LOOKOUT  PTSUNNY   37  36  93 S2        30.13S
TORONTO        PTSUNNY   54  43  66 N17       30.12R
BIG TROUT LK   SUNNY     36  25  64 S13       30.14F
PICKLE LAKE    MOSUNNY   37  30  75 S6        30.14F
DRYDEN         CLOUDY    41  37  87 SE10      30.10F
KENORA         CLOUDY    41  41 100 S8        30.06
$$
                *** MANITOBA***

CITY           SKY/WX    TMP DP  RH WIND       PRES   REMARKS
BRANDON        PTSUNNY   41  39  93 E8        29.89F
DAUPHIN        SUNNY     41  39  93 E3        29.83F
ISLAND LAKE    PTSUNNY   39  34  81 S10       30.00F
PILOT MOUND      N/A     46  45  93 S9          N/A
THE PAS        CLOUDY   N/A N/A N/A S14G22      N/A
THOMPSON       CLOUDY    41  39  93 S10       29.76
WINNIPEG       PTSUNNY   45  41  87 S8        29.98F
LYNN LAKE      CLOUDY    41  39  93 S9G17     29.59F
CHURCHILL      CLOUDY    34  27  75 S18       29.83F WCI  23
GILLAM         LGTSLEET N/A N/A N/A SE9         N/A
$$
                ***SASKATCHEWAN***

CITY           SKY/WX    TMP DP  RH WIND       PRES   REMARKS
ESTEVAN        MOSUNNY   50  48  93 SE8       29.75F
KINDERSLEY     MOCLDY    52  48  87 S9        29.54S
LLOYDMINSTER   MOCLDY    43  43 100 E3        29.52F FOG
PRINCE ALBERT  PTSUNNY   45  45 100 E6        29.57
REGINA         MOSUNNY   50  46  87 SE15G22   29.67F
YORKTON        SUNNY     46  43  87 SE15G23   29.73F
N. BATTLEFORD  CLEAR     46  46 100 SE6       29.55F
LA RONGE       PTSUNNY   46  45  93 S9        29.56F
SASKATOON      PTSUNNY   52  46  82 S6        29.57
SWIFT CURRENT  SUNNY     59  48  67 SW18      29.60S
$$
NOTE: THESE ARE AUTOMATED STATIONS WITH LIMITED QUALITY CONTROL
      "FAIR" INDICATES FEW OR NO CLOUDS BELOW 12,000 FEET WITH NO
      SIGNIFICANT WEATHER AND/OR OBSTRUCTIONS TO VISIBILITY.
      SKY/WX - SKY CONDITION AND SIGNIFICANT WEATHER.
      TMP - AIR TEMPERATURE.    DP   - DEWPOINT TEMPERATURE.
      RH  - RELATIVE HUMIDITY.  PRES - PRESSURE.
      HX  - HEAT INDEX.         WCI  - WIND CHILL INDEX.
$


USA.gov is the U.S. government's official web portal to all federal, state and local government web resources and services.